Date String (YYYY-MM-DD hh:mm:ss) UTC,Instrument flags,Ambient pressure (hPa),Sample flow (lpm),Bypass flow (lpm),Sample temperature (°C),Ambient temperature (°C),ASC tube jacket temperature (°C),LED temperature (°C),Box temperature (°C),Sample RH (%),Span deviation,Mass concentration (μg/m³),Mass concentration (μg/m³),Mass concentration (μg/m³)
DateTimeUTC,F1_M11,P_M11,Q1_M11,Q2_M11,T1_M11,T2_M11,T3_M11,T4_M11,T5_M11,U1_M11,ZSPAN_M11,X0_M11,X2_M11,X1_M11
2022-04-03 13:00:00,,0824.3,5.00,0.00,26.8,25.8,00.0,35.9,28.5,12.5,0000.0,0014.85,0006.76,0005.15
2022-04-03 13:01:00,,0824.4,5.00,0.00,26.7,25.8,00.0,35.8,28.5,12.7,0000.1,0015.53,0006.75,0005.13
2022-04-03 13:02:00,,0824.4,5.00,0.00,26.7,25.9,00.0,35.8,28.5,12.6,0001.2,0015.09,0006.72,0005.11
2022-04-03 13:03:00,,0824.4,5.00,0.00,26.7,25.9,00.0,35.8,28.5,12.6,0000.7,0016.19,0006.78,0005.09
2022-04-03 13:04:00,,0824.5,5.00,0.00,26.7,25.9,00.0,35.8,28.5,12.6,-000.1,0016.44,0006.77,0005.06
2022-04-03 13:05:00,,0824.6,5.00,0.00,26.7,25.9,00.0,35.8,28.5,12.6,-000.1,0017.39,0006.81,0005.04
2022-04-03 13:06:00,,0824.7,5.00,0.00,26.7,25.9,00.0,35.8,28.4,12.6,-000.6,0018.80,0006.85,0005.00
2022-04-03 13:07:00,,0824.6,5.00,0.00,26.7,25.8,00.0,35.8,28.4,12.5,-000.0,0019.16,0006.83,0004.92
2022-04-03 13:08:00,,0824.6,4.99,0.00,26.7,25.8,00.0,35.7,28.4,12.4,0000.2,0019.45,0006.71,0004.81
2022-04-03 13:09:00,,0824.7,5.01,0.00,26.7,25.8,00.0,35.7,28.4,12.4,0001.0,0020.30,0006.65,0004.70
2022-04-03 13:10:00,,0824.6,5.01,0.00,26.6,25.8,00.0,35.7,28.4,12.4,0000.7,0020.63,0006.64,0004.60
2022-04-03 13:11:00,,0824.6,5.00,0.00,26.6,25.7,00.0,35.7,28.4,12.4,-000.0,0022.10,0006.59,0004.53
2022-04-03 13:12:00,,0824.7,4.99,0.00,26.6,25.7,00.0,35.7,28.4,12.3,0000.2,0021.67,0006.49,0004.45
2022-04-03 13:13:00,,0824.6,5.01,0.00,26.6,25.7,00.0,35.7,28.4,12.3,-000.6,0021.43,0006.36,0004.32
2022-04-03 13:14:00,,0824.6,4.99,0.00,26.6,25.8,00.0,35.7,28.4,12.3,-000.5,0021.46,0006.27,0004.23
2022-04-03 13:15:00,,0824.6,5.00,0.00,26.6,25.7,00.0,35.7,28.3,12.4,0000.4,0022.29,0006.23,0004.14
2022-04-03 13:16:00,,0824.7,5.01,0.00,26.6,25.7,00.0,35.6,28.3,12.4,0001.1,0021.50,0006.13,0004.04
2022-04-03 13:17:00,,0824.7,4.99,0.00,26.6,25.6,00.0,35.6,28.3,12.5,0000.7,0020.45,0006.06,0003.97
2022-04-03 13:18:00,,0824.7,5.00,0.00,26.5,25.6,00.0,35.6,28.2,12.5,0000.0,0020.63,0006.02,0003.92
2022-04-03 13:19:00,,0824.7,5.00,0.00,26.5,25.5,00.0,35.6,28.2,12.6,0000.0,0021.55,0006.02,0003.90
2022-04-03 13:20:00,,0824.6,5.00,0.00,26.5,25.4,00.0,35.6,28.2,12.6,0000.0,0021.52,0006.04,0003.88
2022-04-03 13:21:00,,0824.6,5.00,0.00,26.5,25.5,00.0,35.6,28.2,12.6,0000.0,0022.36,0006.00,0003.85
2022-04-03 13:22:00,,0824.7,5.00,0.00,26.5,25.6,00.0,35.6,28.2,12.6,0000.0,0022.08,0005.96,0003.82
2022-04-03 13:23:00,,0824.7,5.00,0.00,26.5,25.6,00.0,35.5,28.2,12.6,0000.0,0022.24,0006.03,0003.78
2022-04-03 13:24:00,,0824.6,5.00,0.00,26.4,25.6,00.0,35.5,28.2,12.6,0000.0,0022.24,0006.04,0003.78
2022-04-03 13:25:00,,0824.7,5.01,0.00,26.4,25.5,00.0,35.5,28.1,12.7,0000.0,0021.79,0006.05,0003.77
2022-04-03 13:26:00,,0824.6,5.00,0.00,26.4,25.5,00.0,35.5,28.1,12.7,0000.0,0020.85,0005.97,0003.75
2022-04-03 13:27:00,,0824.6,5.00,0.00,26.4,25.4,00.0,35.5,28.1,12.8,0000.0,0021.12,0005.92,0003.72
2022-04-03 13:28:00,,0824.7,5.00,0.00,26.3,25.4,00.0,35.5,28.1,12.8,0000.0,0020.96,0005.85,0003.69
2022-04-03 13:29:00,,0824.6,5.00,0.00,26.3,25.4,00.0,35.4,28.0,12.9,0000.0,0021.23,0005.74,0003.63
2022-04-03 13:30:00,,0824.6,5.00,0.00,26.3,25.3,00.0,35.4,28.0,12.9,0000.0,0022.26,0005.66,0003.57
2022-04-03 13:31:00,,0824.6,5.01,0.00,26.3,25.3,00.0,35.4,28.0,12.9,0000.0,0022.10,0005.61,0003.51
2022-04-03 13:32:00,,0824.7,5.00,0.00,26.3,25.3,00.0,35.4,28.0,13.0,0000.0,0022.58,0005.60,0003.47
2022-04-03 13:33:00,,0824.7,5.00,0.00,26.3,25.3,00.0,35.4,28.0,13.0,0000.0,0022.06,0005.55,0003.43
2022-04-03 13:34:00,,0824.7,5.00,0.00,26.3,25.4,00.0,35.4,28.0,13.0,0000.0,0020.52,0005.42,0003.39
2022-04-03 13:35:00,,0824.8,5.00,0.00,26.2,25.4,00.0,35.3,28.0,12.9,0000.0,0020.13,0005.40,0003.33
2022-04-03 13:36:00,,0824.9,5.01,0.00,26.2,25.4,00.0,35.3,28.0,12.9,0000.0,0020.51,0005.32,0003.27
2022-04-03 13:37:00,,0824.9,5.00,0.00,26.2,25.4,00.0,35.3,28.0,12.9,0000.0,0020.43,0005.33,0003.21
2022-04-03 13:38:00,,0825.0,4.98,0.00,26.3,25.5,00.0,35.3,28.0,13.0,0000.0,0020.44,0005.34,0003.16
2022-04-03 13:39:00,,0825.1,5.00,0.00,26.3,25.5,00.0,35.3,28.0,12.9,0000.0,0020.48,0005.31,0003.11
2022-04-03 13:40:00,,0825.1,5.00,0.00,26.3,25.5,00.0,35.3,28.0,12.9,0000.0,0019.98,0005.26,0003.05
2022-04-03 13:41:00,,0825.2,5.00,0.00,26.3,25.5,00.0,35.3,28.1,12.9,0000.0,0019.03,0005.25,0002.99
2022-04-03 13:42:00,,0825.2,5.00,0.00,26.3,25.5,00.0,35.3,28.0,12.8,0000.0,0018.35,0005.24,0002.92
2022-04-03 13:43:00,,0825.3,5.00,0.00,26.3,25.5,00.0,35.3,28.0,12.8,0000.0,0017.70,0005.19,0002.88
2022-04-03 13:44:00,,0825.3,5.01,0.00,26.3,25.5,00.0,35.3,28.1,12.9,0000.0,0017.37,0005.19,0002.84
2022-04-03 13:45:00,,0825.4,5.00,0.00,26.3,25.5,00.0,35.3,28.1,12.9,0000.0,0017.85,0005.17,0002.76
2022-04-03 13:46:00,,0825.4,4.99,0.00,26.3,25.5,00.0,35.3,28.1,13.0,0000.0,0017.95,0005.11,0002.73
2022-04-03 13:47:00,,0825.4,5.00,0.00,26.3,25.5,00.0,35.3,28.1,13.0,0000.0,0018.72,0005.11,0002.67
2022-04-03 13:48:00,,0825.5,5.00,0.00,26.3,25.5,00.0,35.3,28.1,13.0,0000.0,0018.23,0005.10,0002.63
2022-04-03 13:49:00,,0825.5,5.00,0.00,26.3,25.5,00.0,35.3,28.1,13.0,0000.0,0018.03,0005.09,0002.61
2022-04-03 13:50:00,,0825.4,5.00,0.00,26.3,25.5,00.0,35.3,28.1,13.0,0000.0,0018.11,0005.09,0002.62
2022-04-03 13:51:00,,0825.5,5.00,0.00,26.3,25.5,00.0,35.3,28.1,13.0,0000.0,0017.71,0005.08,0002.62
2022-04-03 13:52:00,,0825.4,5.00,0.00,26.3,25.5,00.0,35.3,28.1,13.0,0000.0,0016.56,0005.08,0002.63
2022-04-03 13:53:00,,0825.4,5.00,0.00,26.3,25.5,00.0,35.3,28.1,13.1,0000.0,0016.59,0005.06,0002.63
2022-04-03 13:54:00,,0825.4,5.00,0.00,26.3,25.5,00.0,35.3,28.1,13.0,0000.0,0017.13,0005.03,0002.60
2022-04-03 13:55:00,,0825.4,5.00,0.00,26.3,25.4,00.0,35.2,28.1,12.9,0000.0,0017.00,0005.01,0002.56
2022-04-03 13:56:00,,0825.4,5.00,0.00,26.3,25.4,00.0,35.2,28.0,13.1,0000.0,0018.30,0005.04,0002.56
2022-04-03 13:57:00,,0825.4,5.00,0.00,26.2,25.3,00.0,35.2,28.0,13.0,0000.0,0019.53,0005.10,0002.56
2022-04-03 13:58:00,,0825.4,5.01,0.00,26.2,25.3,00.0,35.2,28.0,13.0,0000.0,0019.44,0005.10,0002.55
2022-04-03 13:59:00,,0825.4,4.99,0.00,26.2,25.2,00.0,35.2,28.0,13.1,0000.0,0020.11,0005.09,0002.54
